Вернуться в каталог

STARLINK-36527

АктивенСвязьVLEO
NORAD 67631·PAYLOAD·🇺🇸 United States

Запущен Jan 30, 2026 с Cape Canaveral Space Force Station

Loading…

Ближайшие Пролёты (ближайшие 24 часа)

TLE

СвежийSource: CelesTrak SupGP

Эпоха: Sep 14, 2026, 21:35 UTC

1 67631C 26020Q   26257.89979167 -.00033826  00000+0 -12252-2 0  2575
2 67631  43.0010 151.6508 0001432 256.2060 186.9441 15.27593094    19

Отслеживайте STARLINK-36527 в реальном времени с AllMySat

Download on the App Store